Home   Weather   Newark   Past weeks
Flag for USA

Past Weather in Newark, New Jersey, USA — Yesterday and Last 2 Weeks

Now
73 °F

Scattered clouds.


Feels Like: 77 °F
Forecast: 80 / 58 °F
Wind: 7 mph from North

Location: Newark International Airport

Current Time: May 19, 2019 at 12:45:19 pm

Latest Report: May 19, 2019 at 11:51 am


Visibility: 10 mi

Pressure: 30.04 "Hg

Humidity: 57%

Dew Point: 57 °F

Location of NewarkLocation

Past Weather in Newark — Graph

°F

Newark Temperature Yesterday

Maximum temperature yesterday: 78 °F (at 3:51 pm)
Minimum temperature yesterday: 58 °F (at 5:51 am)
Average temperature yesterday: 67 °F

High & Low Weather Summary for the Past Weeks

 TemperatureHumidityPressure
High79 °F (May 10, 5:51 pm)97% (May 5, 1:08 am)30.33 "Hg (May 5, 1:08 am)
Low43 °F (May 13, 1:51 am)24% (May 18, 1:51 pm)29.70 "Hg (May 17, 3:51 pm)
Average59 °F72%29.95 "Hg
* Reported May 4 10:51 am — May 19 10:51 am, Newark. Weather by CustomWeather, © 2019

Note: Actual official high and low records may vary slightly from our data, if they occured in-between our weather recording intervals... More about our weather records

Advertising

Newark Weather History for the Previous 24 Hours

Scroll right to see more
 ConditionsComfort  
Time TempWeatherWind HumidityBarometerVisibility
10:51 am
Sun, May 19
71 °FPartly sunny.6 mph66%30.05 "Hg10 mi
9:51 am67 °FBroken clouds.5 mph76%30.06 "Hg10 mi
8:51 am63 °FLight rain. More clouds than sun.8 mph78%30.08 "Hg10 mi
7:51 am63 °FBroken clouds.13 mph75%30.08 "Hg10 mi
6:51 am61 °FPartly sunny.6 mph78%30.08 "Hg10 mi
5:51 am60 °FOvercast.7 mph78%30.08 "Hg10 mi
4:51 am59 °FPassing clouds.6 mph78%30.06 "Hg10 mi
3:51 am60 °FPartly cloudy.5 mph72%30.07 "Hg10 mi
2:51 am60 °FPassing clouds.6 mph72%30.07 "Hg10 mi
1:51 am61 °FPassing clouds.9 mph67%30.07 "Hg10 mi
12:51 am61 °FPassing clouds.6 mph60%30.07 "Hg10 mi
11:51 pm
Sat, May 18
62 °FPassing clouds.8 mph58%30.06 "Hg10 mi
10:51 pm62 °FPassing clouds.6 mph60%30.06 "Hg10 mi
9:51 pm63 °FPassing clouds.5 mph58%30.04 "Hg10 mi
8:51 pm65 °FPassing clouds.3 mph52%30.02 "Hg10 mi
7:51 pm68 °FPartly sunny.6 mph47%30.00 "Hg10 mi
6:51 pm71 °FBroken clouds.7 mph41%29.98 "Hg10 mi
5:51 pm73 °FScattered clouds.10 mph38%29.97 "Hg10 mi
4:51 pm74 °FBroken clouds.7 mph36%29.96 "Hg10 mi
3:51 pm78 °FPartly sunny.5 mph25%29.95 "Hg10 mi
2:51 pm76 °FPartly sunny.7 mph24%29.97 "Hg10 mi
1:51 pm75 °FScattered clouds.5 mph24%29.98 "Hg10 mi
12:51 pm73 °FScattered clouds.8 mph26%29.99 "Hg10 mi
Weather by CustomWeather, © 2019

See weather overview